OE-11373 Weather Reports


time (UTC)temp
F
wind
direction
speed
knots
gust
knots
rain 1hr
in
rain 24hr
in
rain mn
in
humidity
%
barometer
mb
20260903072513 59 262 7.8 12.2 0.00 0.00 0.00 68 857.0
20260903071127 59 260 7.0 13.0 0.00 0.00 0.00 68 856.9
20260903070514 58 267 7.0 10.4 0.00 0.00 0.00 70 856.9
20260903065514 58 266 7.8 12.2 0.00 0.00 0.00 70 856.8
20260903064126 58 270 8.7 13.0 0.00 0.00 0.00 71 856.8
20260903063513 58 270 8.7 14.8 0.00 0.00 0.00 70 856.8
20260903062514 58 262 7.8 13.0 0.00 0.00 0.00 71 856.8
20260903061127 58 267 8.7 13.0 0.00 0.00 0.00 71 856.6
20260903060514 58 273 9.6 13.9 0.00 0.00 0.00 71 856.6
20260903055513 57 274 10.4 14.8 0.00 0.00 0.00 71 856.5
20260903054126 57 271 10.4 14.8 0.00 0.00 0.00 72 856.5
20260903053514 57 268 11.3 14.8 0.00 0.00 0.00 71 856.3
20260903052514 57 265 11.3 16.5 0.00 0.00 0.00 72 856.2
20260903051127 57 267 11.3 14.8 0.00 0.00 0.00 72 856.1
20260903050513 57 272 11.3 17.4 0.00 0.00 0.00 72 856.1
20260903045514 57 271 11.3 16.5 0.00 0.00 0.00 72 856.1
20260903044126 57 270 11.3 14.8 0.00 0.00 0.00 72 856.1
20260903043513 57 272 11.3 16.5 0.00 0.00 0.00 72 856.0
20260903042514 57 271 11.3 14.8 0.00 0.00 0.00 72 856.0
20260903041126 57 268 11.3 13.9 0.00 0.00 0.00 72 856.1
20260903040514 57 270 11.3 14.8 0.00 0.00 0.00 72 856.0
20260903035514 57 273 12.2 16.5 0.00 0.00 0.00 72 856.0
20260903034513 57 276 12.2 17.4 0.00 0.00 0.00 73 856.0
20260903033514 57 272 12.2 16.5 0.00 0.00 0.00 74 856.0
20260903032514 57 271 12.2 16.5 0.00 0.00 0.00 74 856.0
20260903031127 57 269 12.2 15.6 0.00 0.00 0.00 73 856.0
20260903030514 58 271 13.0 16.5 0.00 0.00 0.00 72 856.0
20260903025514 58 272 13.0 19.1 0.00 0.00 0.00 72 856.0
20260903024514 58 273 13.0 19.1 0.00 0.00 0.00 70 856.0
20260903023514 59 270 14.8 20.9 0.00 0.00 0.00 70 856.0
20260903022514 59 272 16.5 23.5 0.00 0.00 0.00 68 856.0
20260903021126 59 270 14.8 22.6 0.00 0.00 0.00 67 855.9
20260903020514 59 268 13.9 20.0 0.00 0.00 0.00 64 855.9
20260903015514 60 262 13.0 17.4 0.00 0.00 0.00 63 856.1
20260903014126 60 264 13.0 19.1 0.00 0.00 0.00 61 856.1
20260903013513 61 260 13.0 20.0 0.00 0.00 0.00 59 856.1
20260903012513 61 255 11.3 17.4 0.00 0.00 0.00 57 856.2
20260903011127 61 255 12.2 17.4 0.00 0.00 0.00 57 856.2
20260903010514 61 249 11.3 17.4 0.00 0.00 0.00 56 856.2
20260903005514 61 248 11.3 16.5 0.00 0.00 0.00 56 856.2
20260903004127 61 248 11.3 15.6 0.00 0.00 0.00 57 856.3
20260903003514 61 235 11.3 14.8 0.00 0.00 0.00 56 856.2
20260903002514 61 230 10.4 15.6 0.00 0.00 0.00 56 856.2
20260903001526 61 231 11.3 15.6 0.00 0.00 0.00 56 856.2
20260903000513 61 232 11.3 16.5 0.00 0.00 0.00 57 856.1
20260902235513 61 238 12.2 16.5 0.00 0.00 0.00 59 856.2
20260902234127 61 242 11.3 15.6 0.00 0.00 0.00 57 856.3
20260902233513 61 240 11.3 16.5 0.00 0.00 0.00 56 856.3
20260902232513 61 248 12.2 16.5 0.00 0.00 0.00 59 856.4
20260902231514 61 253 12.2 15.6 0.00 0.00 0.00 61 856.4
20260902230513 61 249 12.2 18.2 0.00 0.00 0.00 61 856.4
20260902225514 61 239 10.4 13.9 0.00 0.00 0.00 68 856.4
20260902224127 61 233 8.7 12.2 0.00 0.00 0.00 67 856.5
20260902223514 61 223 7.8 9.6 0.00 0.00 0.00 64 856.4
20260902222514 62 220 7.0 8.7 0.00 0.00 0.00 62 856.5
20260902221127 62 219 6.1 7.8 0.00 0.00 0.00 62 856.5
20260902220513 62 219 5.2 7.0 0.00 0.00 0.00 61 856.5
20260902215514 63 213 5.2 6.1 0.00 0.00 0.00 61 856.4
20260902214127 63 205 4.3 5.2 0.00 0.00 0.00 61 856.4
20260902213513 63 215 3.5 4.3 0.00 0.00 0.00 61 856.3
20260902211127 63 210 2.6 2.6 0.00 0.00 0.00 60 856.4
20260902210514 63 194 2.6 2.6 0.00 0.00 0.00 60 856.4
20260902205514 63 177 2.6 2.6 0.00 0.00 0.00 61 856.4
20260902204128 63 159 1.7 2.6 0.00 0.00 0.00 60 856.4
20260902203513 63 159 1.7 2.6 0.00 0.00 0.00 60 856.4
20260902202514 63 134 1.7 1.7 0.00 0.00 0.00 60 856.3
20260902201127 63 126 1.7 2.6 0.00 0.00 0.00 58 856.4
20260902200514 63 119 2.6 3.5 0.00 0.00 0.00 58 856.3
20260902195514 63 116 1.7 3.5 0.00 0.00 0.00 59 856.3
20260902194127 62 84 0.9 2.6 0.00 0.00 0.00 58 856.4
20260902193514 63 90 0.9 3.5 0.00 0.00 0.00 57 856.4
20260902192513 63 63 1.7 2.6 0.00 0.00 0.00 56 856.4
20260902191127 63 49 0.9 1.7 0.00 0.00 0.00 57 856.4
20260902190513 63 51 1.7 1.7 0.00 0.00 0.00 58 856.4
20260902185514 63 65 0.9 1.7 0.00 0.00 0.00 58 856.3
20260902184127 63 38 1.7 2.6 0.00 0.00 0.00 59 856.1
20260902183514 63 17 1.7 2.6 0.00 0.00 0.00 60 856.1
20260902182514 63 5 2.6 4.3 0.00 0.00 0.00 60 855.9
20260902181127 63 359 3.5 6.1 0.00 0.00 0.00 61 855.8
20260902180514 63 359 4.3 6.1 0.00 0.00 0.00 61 855.8
20260902175514 63 359 4.3 6.1 0.00 0.00 0.00 62 855.7
20260902174127 63 350 6.1 8.7 0.00 0.00 0.00 63 855.7
20260902173513 62 329 6.1 8.7 0.00 0.00 0.00 62 855.6
20260902172514 63 318 5.2 8.7 0.00 0.00 0.00 61 855.6
20260902171127 63 313 6.1 11.3 0.00 0.00 0.00 62 855.6
20260902170514 63 313 6.1 9.6 0.00 0.00 0.00 61 855.5
20260902165514 64 304 6.1 9.6 0.00 0.00 0.00 59 855.7
20260902164127 64 290 7.0 9.6 0.00 0.00 0.00 58 855.7
20260902163514 64 296 7.0 10.4 0.00 0.00 0.00 58 855.6
20260902162514 65 307 9.6 13.9 0.00 0.00 0.00 57 855.6
20260902161127 65 292 8.7 12.2 0.00 0.00 0.00 57 855.6
20260902160513 65 304 9.6 13.0 0.00 0.00 0.00 57 855.8
20260902155514 65 302 9.6 13.9 0.00 0.00 0.00 55 855.8
20260902154127 65 304 8.7 13.9 0.00 0.00 0.00 58 855.8
20260902153514 65 292 7.8 11.3 0.00 0.00 0.00 57 855.8
20260902152513 66 302 7.0 13.0 0.00 0.00 0.00 58 855.9
20260902151127 65 305 7.8 11.3 0.00 0.00 0.00 58 855.9
20260902150514 65 309 6.1 12.2 0.00 0.00 0.00 57 855.9
20260902145514 65 310 6.1 13.0 0.00 0.00 0.00 58 856.0
20260902144127 65 295 6.1 10.4 0.00 0.00 0.00 58 855.9
20260902143513 65 297 7.0 11.3 0.00 0.00 0.00 57 856.2
20260902142514 65 309 6.1 10.4 0.00 0.00 0.00 58 856.2
20260902141127 65 308 8.7 13.9 0.00 0.00 0.00 60 856.2
20260902140514 64 326 8.7 13.0 0.00 0.00 0.00 58 856.1
20260902135514 64 313 8.7 13.0 0.00 0.00 0.00 58 856.1
20260902134126 65 318 7.8 13.0 0.00 0.00 0.00 58 856.1
20260902133514 64 320 8.7 13.0 0.00 0.00 0.00 59 855.9
20260902132514 64 323 9.6 14.8 0.00 0.00 0.00 59 856.1
20260902131127 64 317 8.7 13.0 0.00 0.00 0.00 58 856.2
20260902130514 64 311 5.2 10.4 0.00 0.00 0.00 58 856.2
20260902125514 65 323 4.3 11.3 0.00 0.00 0.00 57 856.3
20260902124126 65 326 3.5 7.8 0.00 0.00 0.00 55 856.4
20260902123514 64 328 7.8 14.8 0.00 0.00 0.00 57 856.3
20260902122514 64 319 7.0 11.3 0.00 0.00 0.00 56 856.4
20260902121127 65 309 5.2 8.7 0.00 0.00 0.00 56 856.4
20260902120513 65 309 4.3 9.6 0.00 0.00 0.00 56 856.4
20260902115513 65 309 6.1 9.6 0.00 0.00 0.00 52 856.5
20260902114127 65 311 6.1 9.6 0.00 0.00 0.00 54 856.5
20260902113514 64 331 5.2 9.6 0.00 0.00 0.00 56 856.6
20260902112514 65 325 5.2 11.3 0.00 0.00 0.00 51 856.6
20260902111127 65 302 3.5 9.6 0.00 0.00 0.00 54 856.6
20260902110514 65 353 2.6 6.1 0.00 0.00 0.00 56 856.7
20260902105513 65 312 3.5 7.0 0.00 0.00 0.00 55 856.7
20260902104127 65 341 2.6 5.2 0.00 0.00 0.00 57 856.8
20260902103514 64 346 3.5 5.2 0.00 0.00 0.00 60 856.8
20260902102513 64 321 2.6 6.1 0.00 0.00 0.00 57 856.8
20260902101127 66 92 0.9 5.2 0.00 0.00 0.00 61 857.0
20260902100514 65 90 0.0 5.2 0.00 0.00 0.00 59 857.0
20260902095514 66 348 0.9 4.3 0.00 0.00 0.00 62 857.0
20260902094127 66 68 0.9 5.2 0.00 0.00 0.00 58 857.0
20260902093514 65 2 1.7 4.3 0.00 0.00 0.00 62 856.9
20260902092513 63 39 1.7 5.2 0.00 0.00 0.00 62 856.8
20260902091126 64 12 0.9 4.3 0.00 0.00 0.00 59 856.9
20260902090514 64 28 1.7 7.0 0.00 0.00 0.00 62 856.9
20260902084126 63 18 1.7 4.3 0.00 0.00 0.00 63 856.7
20260902083514 62 11 1.7 5.2 0.00 0.00 0.00 62 856.6
20260902082514 62 4 1.7 4.3 0.00 0.00 0.00 65 856.6
20260902081126 62 2 0.9 4.3 0.00 0.00 0.00 64 856.6
20260902080513 62 20 0.9 4.3 0.00 0.00 0.00 64 856.6
20260902075514 63 98 1.7 6.1 0.00 0.00 0.00 64 856.5
20260902074127 62 78 1.7 5.2 0.00 0.00 0.00 65 856.4
20260902073513 61 44 0.9 4.3 0.00 0.00 0.00 67 856.3